Date String (YYYY-MM-DD hh:mm:ss) UTC,Instrument flags,Ambient pressure (hPa),Sample flow (lpm),Bypass flow (lpm),Sample temperature (°C),Ambient temperature (°C),ASC tube jacket temperature (°C),LED temperature (°C),Box temperature (°C),Sample RH (%),Span deviation,Mass concentration (μg/m³),Mass concentration (μg/m³),Mass concentration (μg/m³)
DateTimeUTC,F1_M11,P_M11,Q1_M11,Q2_M11,T1_M11,T2_M11,T3_M11,T4_M11,T5_M11,U1_M11,ZSPAN_M11,X0_M11,X2_M11,X1_M11
2022-09-22 15:00:00,,0831.3,4.98,0.00,29.1,27.6,00.0,37.8,31.0,26.3,-001.7,0006.32,0004.79,0004.68
2022-09-22 15:01:00,,0831.3,5.01,0.00,29.1,27.6,00.0,37.8,31.0,26.4,-001.8,0006.21,0004.74,0004.64
2022-09-22 15:02:00,,0831.2,5.01,0.00,29.1,27.7,00.0,37.8,31.0,26.4,-001.8,0006.17,0004.71,0004.61
2022-09-22 15:03:00,,0831.2,5.00,0.00,29.1,27.7,00.0,37.8,31.0,26.3,-001.9,0006.14,0004.70,0004.60
2022-09-22 15:04:00,,0831.2,5.01,0.00,29.2,27.7,00.0,37.9,31.0,26.3,-002.0,0006.11,0004.69,0004.57
2022-09-22 15:05:00,,0831.2,4.99,0.00,29.2,27.7,00.0,37.9,31.1,26.3,-002.2,0006.01,0004.64,0004.53
2022-09-22 15:06:00,,0831.2,5.01,0.00,29.2,27.7,00.0,37.9,31.0,27.1,-000.4,0005.91,0004.59,0004.48
2022-09-22 15:07:00,,0831.2,4.99,0.00,29.2,27.7,00.0,37.9,31.0,27.1,0000.0,0006.06,0004.55,0004.45
2022-09-22 15:08:00,,0831.2,5.01,0.00,29.1,27.7,00.0,37.9,31.0,26.7,0000.0,0007.00,0004.55,0004.44
2022-09-22 15:09:00,,0831.2,5.01,0.00,29.2,27.7,00.0,37.9,31.0,26.6,0000.0,0007.13,0004.57,0004.46
2022-09-22 15:10:00,,0831.2,4.99,0.00,29.2,27.7,00.0,37.9,31.0,26.6,0000.0,0007.19,0004.59,0004.47
2022-09-22 15:11:00,,0831.2,5.01,0.00,29.2,27.7,00.0,37.9,31.0,26.6,0000.0,0007.27,0004.61,0004.49
2022-09-22 15:12:00,,0831.3,4.99,0.00,29.2,27.7,00.0,37.9,31.0,26.6,0000.0,0007.31,0004.64,0004.51
2022-09-22 15:13:00,,0831.3,5.01,0.00,29.2,27.7,00.0,37.9,31.1,26.5,0000.0,0007.40,0004.69,0004.54
2022-09-22 15:14:00,,0831.3,4.99,0.00,29.2,27.7,00.0,37.9,31.0,26.4,0000.0,0007.45,0004.72,0004.55
2022-09-22 15:15:00,,0831.3,5.00,0.00,29.2,27.7,00.0,37.9,31.0,26.4,0000.0,0007.45,0004.73,0004.58
2022-09-22 15:16:00,,0831.3,5.01,0.00,29.2,27.6,00.0,37.9,31.0,26.4,0000.0,0007.46,0004.77,0004.62
2022-09-22 15:17:00,,0831.2,5.00,0.00,29.2,27.6,00.0,37.9,31.0,26.5,-000.3,0007.53,0004.83,0004.66
2022-09-22 15:18:00,,0831.2,5.00,0.00,29.2,27.6,00.0,37.9,31.0,26.4,-001.5,0007.30,0004.86,0004.69
2022-09-22 15:19:00,,0831.2,5.00,0.00,29.2,27.6,00.0,37.9,31.0,26.3,-001.5,0006.64,0004.90,0004.71
2022-09-22 15:20:00,,0831.2,5.00,0.00,29.2,27.6,00.0,37.9,31.0,26.3,-000.9,0006.60,0004.91,0004.72
2022-09-22 15:21:00,,0831.2,4.99,0.00,29.2,27.6,00.0,37.9,31.0,26.2,-000.6,0006.57,0004.91,0004.73
2022-09-22 15:22:00,,0831.3,5.01,0.00,29.2,27.6,00.0,37.9,31.0,26.2,-000.6,0006.57,0004.92,0004.74
2022-09-22 15:23:00,,0831.3,4.99,0.00,29.2,27.6,00.0,37.9,31.0,26.2,-000.7,0006.60,0004.93,0004.74
2022-09-22 15:24:00,,0831.3,5.01,0.00,29.2,27.6,00.0,37.9,31.0,26.2,-000.6,0006.58,0004.93,0004.74
2022-09-22 15:25:00,,0831.4,5.00,0.00,29.1,27.6,00.0,37.9,31.0,26.1,-000.4,0006.47,0004.91,0004.75
2022-09-22 15:26:00,,0831.4,5.00,0.00,29.1,27.6,00.0,37.9,31.0,26.1,-000.3,0006.43,0004.91,0004.75
2022-09-22 15:27:00,,0831.4,4.99,0.00,29.1,27.6,00.0,37.9,31.0,26.1,-000.3,0006.54,0004.93,0004.76
2022-09-22 15:28:00,,0831.4,5.01,0.00,29.1,27.5,00.0,37.9,31.0,26.2,-000.5,0006.65,0004.94,0004.78
2022-09-22 15:29:00,,0831.4,4.99,0.00,29.1,27.5,00.0,37.9,31.0,26.2,-001.0,0006.65,0004.95,0004.79
2022-09-22 15:30:00,,0831.4,5.01,0.00,29.1,27.5,00.0,37.9,31.0,26.2,-001.9,0006.61,0004.94,0004.81
2022-09-22 15:31:00,,0831.4,5.00,0.00,29.1,27.5,00.0,37.9,30.9,26.3,-002.4,0006.63,0004.96,0004.82
2022-09-22 15:32:00,,0831.4,4.99,0.00,29.1,27.5,00.0,37.9,30.9,26.3,-002.3,0006.65,0004.97,0004.83
2022-09-22 15:33:00,,0831.3,5.00,0.00,29.1,27.5,00.0,37.9,30.9,26.3,-002.2,0006.61,0004.96,0004.83
2022-09-22 15:34:00,,0831.3,5.01,0.00,29.1,27.5,00.0,37.9,30.9,26.3,-002.2,0006.58,0004.96,0004.84
2022-09-22 15:35:00,,0831.3,4.98,0.00,29.1,27.5,00.0,37.9,30.9,26.4,-002.2,0006.55,0004.96,0004.84
2022-09-22 15:36:00,,0831.3,5.02,0.00,29.1,27.5,00.0,37.9,30.9,26.5,-002.2,0006.61,0004.97,0004.85
2022-09-22 15:37:00,,0831.3,4.99,0.00,29.1,27.5,00.0,37.8,30.9,26.4,-002.6,0006.64,0004.98,0004.85
2022-09-22 15:38:00,,0831.3,5.00,0.00,29.1,27.5,00.0,37.9,30.9,26.3,-002.9,0006.60,0004.96,0004.84
2022-09-22 15:39:00,,0831.3,5.00,0.00,29.1,27.5,00.0,37.8,30.9,26.5,-003.0,0006.42,0004.93,0004.81
2022-09-22 15:40:00,,0831.3,4.98,0.00,29.1,27.5,00.0,37.8,30.9,26.6,-003.0,0006.40,0004.92,0004.80
2022-09-22 15:41:00,,0831.2,5.01,0.00,29.1,27.5,00.0,37.8,30.9,26.5,-003.1,0006.43,0004.90,0004.77
2022-09-22 15:42:00,,0831.2,5.00,0.00,29.1,27.5,00.0,37.8,30.9,26.5,-003.1,0006.44,0004.88,0004.74
2022-09-22 15:43:00,,0831.2,5.00,0.00,29.1,27.5,00.0,37.8,30.9,26.6,-002.5,0006.30,0004.84,0004.71
2022-09-22 15:44:00,,0831.2,5.00,0.00,29.1,27.5,00.0,37.8,30.9,26.5,-003.1,0006.28,0004.81,0004.68
2022-09-22 15:45:00,,0831.3,5.01,0.00,29.1,27.5,00.0,37.8,30.9,26.5,-002.9,0006.32,0004.80,0004.66
2022-09-22 15:46:00,,0831.3,4.99,0.00,29.1,27.5,00.0,37.8,30.9,26.4,-002.8,0006.42,0004.79,0004.65
2022-09-22 15:47:00,,0831.3,5.01,0.00,29.1,27.6,00.0,37.8,30.9,26.6,-002.8,0006.42,0004.77,0004.61
2022-09-22 15:48:00,,0831.3,4.99,0.00,29.1,27.6,00.0,37.8,31.0,27.4,-003.1,0006.33,0004.74,0004.58
2022-09-22 15:49:00,,0831.3,5.01,0.00,29.1,27.6,00.0,37.8,31.0,26.6,-002.3,0006.26,0004.72,0004.56
2022-09-22 15:50:00,,0831.3,4.99,0.00,29.1,27.6,00.0,37.8,31.0,26.3,-001.9,0006.21,0004.68,0004.52
2022-09-22 15:51:00,,0831.3,5.01,0.00,29.1,27.6,00.0,37.8,31.0,26.3,-001.0,0006.30,0004.66,0004.49
2022-09-22 15:52:00,,0831.3,5.00,0.00,29.1,27.6,00.0,37.8,31.0,26.4,-000.5,0006.21,0004.64,0004.48
2022-09-22 15:53:00,,0831.3,4.99,0.00,29.1,27.6,00.0,37.8,31.0,26.3,-000.1,0006.24,0004.64,0004.47
2022-09-22 15:54:00,,0831.2,5.00,0.00,29.1,27.6,00.0,37.8,31.0,26.3,-000.0,0006.29,0004.63,0004.44
2022-09-22 15:55:00,,0831.2,5.00,0.00,29.1,27.6,00.0,37.8,31.0,26.3,0000.1,0006.31,0004.61,0004.42
2022-09-22 15:56:00,,0831.2,4.99,0.00,29.1,27.6,00.0,37.8,31.0,26.2,-000.5,0006.34,0004.57,0004.39
2022-09-22 15:57:00,,0831.2,5.02,0.00,29.1,27.6,00.0,37.8,31.0,26.2,-000.5,0006.26,0004.55,0004.36
2022-09-22 15:58:00,,0831.2,4.99,0.00,29.1,27.6,00.0,37.8,31.0,26.1,0000.0,0006.32,0004.54,0004.34
2022-09-22 15:59:00,,0831.2,5.02,0.00,29.1,27.6,00.0,37.8,31.0,26.0,-000.8,0006.35,0004.52,0004.31
